Location: El Corozo
(10.5833°N, 66.9667°W)
Time: 07:16:20
(UTC+00:00)

NOAA 16 DEB - Visible Passes

Search period start: 07 October 2024 00:00
Search period end: 17 October 2024 00:00
Orbit: 825 x 850 km, 98.6° (Epoch: 06 October)

Date Brightness Start Highest point End Pass type
(mag) Time Alt. Az. Time Alt. Az. Time Alt. Az.
07 Oct ? 23:36:06 19° NNE 23:36:06 19° NNE 23:37:57 10° NNE visible
08 Oct ? 23:20:29 14° NE 23:20:29 14° NE 23:21:36 10° NNE visible
09 Oct ? 01:02:13 11° NW 01:02:13 11° NW 01:02:25 10° NW visible
10 Oct ? 00:46:35 14° NW 00:46:35 14° NW 00:47:18 10° NNW visible
11 Oct ? 00:30:56 16° NNW 00:30:56 16° NNW 00:31:55 10° NNW visible
12 Oct ? 00:15:16 16° N 00:15:16 16° N 00:16:19 10° N visible
12 Oct ? 23:59:35 15° N 23:59:35 15° N 00:00:31 10° N visible
13 Oct ? 23:43:53 13° NNE 23:43:53 13° NNE 23:44:29 10° N visible
14 Oct ? 23:28:09 10° NNE 23:28:09 10° NNE 23:28:11 10° NNE visible
